Location: Tierra del Sol
(32.6128°N, 116.3319°W)
Time: 04:28:50
(UTC-07:00)

Amateur Radio Satellites - All Passes

Search period start: 31 July 2014 03:58
Search period end: 01 August 2014 03:58
Location: Tierra del Sol, 32.6128°N, 116.3319°W

Satellite Date Start Highest point End Downlink Frequencies (MHz)
Time Altitude Azimuth
Gurwin Techsat 1B 31 Jul 03:59:33 04:04:46 59° 286° (WNW) 04:09:58 435.225 FM
OPAL 31 Jul 04:08:37 04:13:34 82° 255° (WSW) 04:18:32 ?
Uosat F 31 Jul 04:08:46 04:12:38 22° 96° (E) 04:16:29 435.120 FM
KITSAT 1 31 Jul 04:47:07 04:54:24 38° 108° (ESE) 05:01:42 435.175 FM
JAS-1B 31 Jul 04:51:44 04:59:04 29° 299° (WNW) 05:05:33 435.800 - 435.900 CW/SSB
PANSAT 31 Jul 05:10:29 05:14:12 45° 178° (S) 05:17:54 not established
MaSat-1 31 Jul 05:10:50 05:12:37 12° 52° (NE) 05:14:23 437.345 MHz
TMSAT-1 31 Jul 05:15:12 05:18:15 16° 294° (WNW) 05:21:17 436.925 FM
AO-7 31 Jul 05:28:27 05:36:47 83° 288° (WNW) 05:45:04 29.400 - 29.500 MHz
Saudisat 1A 31 Jul 05:28:29 05:29:27 11° 107° (ESE) 05:30:26 436.775 MHz
ISS 31 Jul 05:30:27 05:33:35 36° 40° (NE) 05:36:43 145.800 FM
Uosat F 31 Jul 05:46:59 05:51:24 32° 289° (WNW) 05:55:48 435.120 FM
JAS-2 31 Jul 05:48:38 05:51:29 14° 91° (E) 05:54:15 435.800 - 435.900 CW/SSB, 435.910 FM
Hamsat 31 Jul 06:35:10 06:39:28 67° 101° (E) 06:43:47 145.90 MHz
STRAND 1 31 Jul 06:35:34 06:40:39 63° 74° (ENE) 06:45:44 ?
KITSAT 1 31 Jul 06:42:08 06:49:39 41° 304° (NW) 06:57:12 435.175 FM
MaSat-1 31 Jul 06:45:24 06:50:39 83° 249° (WSW) 06:55:26 437.345 MHz
PANSAT 31 Jul 06:50:35 06:54:07 34° 191° (S) 06:57:39 not established
SO-67 31 Jul 06:59:06 07:00:47 13° 94° (E) 07:02:27 435.3500 MHz FM
Saudisat 1A 31 Jul 07:04:10 07:08:30 56° 300° (WNW) 07:12:51 436.775 MHz
ISS 31 Jul 07:07:59 07:10:03 15° 233° (SW) 07:12:06 145.800 FM
AO-7 31 Jul 07:24:03 07:28:18 15° 305° (NW) 07:32:34 29.400 - 29.500 MHz
JAS-2 31 Jul 07:31:33 07:37:03 52° 288° (WNW) 07:42:07 435.800 - 435.900 CW/SSB, 435.910 FM
STRAND 1 31 Jul 08:18:28 08:20:10 12° 268° (W) 08:21:52 ?
SO-67 31 Jul 08:30:58 08:33:50 24° 287° (WNW) 08:36:40 435.3500 MHz FM
PANSAT 31 Jul 08:31:42 08:33:51 14° 202° (SSW) 08:36:00 not established
Sapphire 31 Jul 08:57:03 09:01:28 25° 56° (NE) 09:05:53 437.095 MHz 1200 baud AX-25 AFSK
UKube-1 31 Jul 09:03:00 09:05:19 14° 94° (E) 09:07:37 145.840 MHz, 145.915 MHz
HO-68 31 Jul 09:14:21 09:20:59 40° 100° (E) 09:27:34 435.675 MHz FM
PCSat 31 Jul 09:29:35 09:34:53 52° 62° (ENE) 09:40:08 145.825 MHz
Oscar 11 31 Jul 09:44:19 09:47:46 23° 96° (E) 09:51:12 145.825 FM, Beacon 2401.500 USB
FUNcube-1 31 Jul 10:13:29 10:16:09 16° 95° (E) 10:18:51 145.950 - 145.970 MHz USB
UKube-1 31 Jul 10:37:36 10:41:37 38° 287° (WNW) 10:45:37 145.840 MHz, 145.915 MHz
Sapphire 31 Jul 10:39:59 10:44:56 37° 251° (WSW) 10:49:51 437.095 MHz 1200 baud AX-25 AFSK
SO-50 31 Jul 10:41:17 10:44:26 19° 109° (ESE) 10:47:37 436.795 FM
RS-15 31 Jul 10:56:58 11:03:11 17° 100° (E) 11:09:16 29.354 - 29.394 USB, Beacon 29.352 USB
HO-68 31 Jul 11:02:18 11:08:27 32° 294° (WNW) 11:14:35 435.675 MHz FM
PCSat 31 Jul 11:14:34 11:17:47 16° 256° (WSW) 11:21:00 145.825 MHz
Oscar 11 31 Jul 11:20:21 11:23:50 24° 289° (WNW) 11:27:18 145.825 FM, Beacon 2401.500 USB
FUNcube-1 31 Jul 11:48:52 11:52:34 31° 287° (WNW) 11:56:18 145.950 - 145.970 MHz USB
Oscar 16 31 Jul 12:15:40 12:17:32 12° 64° (ENE) 12:19:24 437.025 USB, Beacon 2401.1428
SO-50 31 Jul 12:20:41 12:24:43 33° 304° (NW) 12:28:49 436.795 FM
UOSAT-12 31 Jul 12:27:31 12:30:24 17° 108° (ESE) 12:33:20 437.025 FM, 437.400 FM
Uribyol 2 31 Jul 12:59:41 13:02:43 16° 66° (ENE) 13:05:44 436.500 FM
AO-27 31 Jul 13:00:55 13:03:55 16° 66° (ENE) 13:06:56 436.795 MHz FM
RS-15 31 Jul 13:02:44 13:14:00 89° 116° (ESE) 13:24:59 29.354 - 29.394 USB, Beacon 29.352 USB
AO-Echo 31 Jul 13:17:57 13:22:09 24° 69° (ENE) 13:26:21 ?
Oscar 19 31 Jul 13:22:23 13:27:22 58° 74° (ENE) 13:32:24 437.125 CW, 437.150 USB
JAS-1B 31 Jul 13:37:40 13:45:32 36° 64° (ENE) 13:54:05 435.800 - 435.900 CW/SSB
Gurwin Techsat 1B 31 Jul 13:39:06 13:41:53 15° 65° (ENE) 13:44:39 435.225 FM
Oscar 16 31 Jul 13:51:11 13:56:15 66° 258° (WSW) 14:01:22 437.025 USB, Beacon 2401.1428
UOSAT-12 31 Jul 14:05:52 14:10:10 40° 303° (WNW) 14:14:35 437.025 FM, 437.400 FM
ITAMSAT 1 31 Jul 14:17:42 14:22:56 87° 257° (WSW) 14:28:10 435.822 SSB
AO-7 31 Jul 14:33:46 14:38:35 17° 56° (NE) 14:43:24 29.400 - 29.500 MHz
Uribyol 2 31 Jul 14:36:39 14:41:42 52° 260° (W) 14:46:46 436.500 FM
AO-27 31 Jul 14:37:52 14:42:57 53° 259° (W) 14:48:03 436.795 MHz FM
KITSAT 1 31 Jul 14:39:49 14:47:32 46° 57° (ENE) 14:55:11 435.175 FM
TMSAT-1 31 Jul 14:49:54 14:55:02 53° 74° (ENE) 15:00:11 436.925 FM
AO-Echo 31 Jul 14:55:53 15:00:39 34° 262° (W) 15:05:29 ?
Oscar 19 31 Jul 15:04:58 15:07:01 12° 267° (W) 15:09:04 437.125 CW, 437.150 USB
Gurwin Techsat 1B 31 Jul 15:16:04 15:21:17 59° 259° (W) 15:26:32 435.225 FM
Uosat F 31 Jul 15:18:07 15:21:44 20° 68° (ENE) 15:25:22 435.120 FM
RS-15 31 Jul 15:19:24 15:27:48 24° 319° (NW) 15:36:11 29.354 - 29.394 USB, Beacon 29.352 USB
JAS-1B 31 Jul 15:27:02 15:35:28 53° 262° (W) 15:44:57 435.800 - 435.900 CW/SSB
Saudisat 1A 31 Jul 15:35:26 15:39:20 30° 56° (NE) 15:43:12 436.775 MHz
AO-7 31 Jul 16:21:51 16:30:13 89° 73° (ENE) 16:38:38 29.400 - 29.500 MHz
OPAL 31 Jul 16:23:03 16:27:49 39° 101° (E) 16:32:36 ?
TMSAT-1 31 Jul 16:32:20 16:35:12 15° 267° (W) 16:38:04 436.925 FM
KITSAT 1 31 Jul 16:35:39 16:42:36 33° 254° (WSW) 16:49:32 435.175 FM
Uosat F 31 Jul 16:55:34 17:00:13 37° 261° (W) 17:04:53 435.120 FM
Saudisat 1A 31 Jul 17:15:25 17:18:42 21° 250° (WSW) 17:21:57 436.775 MHz
Hamsat 31 Jul 17:24:42 17:28:10 26° 72° (ENE) 17:31:39 145.90 MHz
JAS-2 31 Jul 17:36:09 17:43:24 44° 71° (ENE) 17:50:14 435.800 - 435.900 CW/SSB, 435.910 FM
OPAL 31 Jul 18:02:40 18:06:23 21° 294° (WNW) 18:10:08 ?
AO-7 31 Jul 18:19:40 18:23:46 14° 267° (W) 18:27:53 29.400 - 29.500 MHz
STRAND 1 31 Jul 18:51:17 18:55:46 30° 98° (E) 19:00:12 ?
SO-67 31 Jul 18:59:07 19:02:26 46° 76° (ENE) 19:05:46 435.3500 MHz FM
Hamsat 31 Jul 19:01:06 19:04:05 19° 265° (W) 19:07:05 145.90 MHz
JAS-2 31 Jul 19:21:29 19:28:20 33° 263° (W) 19:34:53 435.800 - 435.900 CW/SSB, 435.910 FM
HO-68 31 Jul 19:39:54 19:44:41 20° 61° (ENE) 19:49:27 435.675 MHz FM
RS-15 31 Jul 19:59:07 20:06:00 18° 34° (NE) 20:12:58 29.354 - 29.394 USB, Beacon 29.352 USB
STRAND 1 31 Jul 20:30:41 20:34:45 25° 291° (WNW) 20:38:49 ?
MaSat-1 31 Jul 20:31:44 20:35:37 75° 293° (WNW) 20:40:13 437.345 MHz
ISS 31 Jul 20:35:38 20:36:14 10° 125° (SE) 20:36:50 145.800 FM
Oscar 11 31 Jul 20:37:40 20:38:36 11° 66° (ENE) 20:39:33 145.825 FM, Beacon 2401.500 USB
SO-50 31 Jul 20:55:53 21:00:37 62° 60° (ENE) 21:05:24 436.795 FM
HO-68 31 Jul 21:24:32 21:31:40 69° 257° (WSW) 21:38:49 435.675 MHz FM
UKube-1 31 Jul 21:28:07 21:32:29 81° 257° (WSW) 21:36:52 145.840 MHz, 145.915 MHz
ISS 31 Jul 22:09:18 22:12:33 52° 318° (NW) 22:15:49 145.800 FM
RS-15 31 Jul 22:09:49 22:20:52 67° 59° (ENE) 22:32:21 29.354 - 29.394 USB, Beacon 29.352 USB
Oscar 11 31 Jul 22:10:05 22:14:17 53° 260° (W) 22:18:29 145.825 FM, Beacon 2401.500 USB
PCSat 31 Jul 22:27:03 22:29:08 12° 103° (ESE) 22:31:14 145.825 MHz
SO-50 31 Jul 22:39:01 22:40:39 12° 253° (WSW) 22:42:17 436.795 FM
UOSAT-12 31 Jul 22:39:32 22:44:06 48° 58° (ENE) 22:48:36 437.025 FM, 437.400 FM
FUNcube-1 31 Jul 22:40:18 22:44:36 70° 259° (WSW) 22:48:50 145.950 - 145.970 MHz USB
Sapphire 31 Jul 23:33:36 23:38:50 55° 111° (ESE) 23:44:07 437.095 MHz 1200 baud AX-25 AFSK
PCSat 01 Aug 00:06:32 00:11:53 66° 297° (WNW) 00:17:17 145.825 MHz
UOSAT-12 01 Aug 00:21:19 00:23:47 14° 252° (WSW) 00:26:14 437.025 FM, 437.400 FM
RS-15 01 Aug 00:23:29 00:32:21 29° 256° (WSW) 00:41:34 29.354 - 29.394 USB, Beacon 29.352 USB
Sapphire 01 Aug 01:19:01 01:22:35 18° 307° (NW) 01:26:11 437.095 MHz 1200 baud AX-25 AFSK
PANSAT 01 Aug 01:28:34 01:29:41 11° 155° (SSE) 01:30:48 not established
Oscar 19 01 Aug 01:38:56 01:43:28 30° 97° (E) 01:47:59 437.125 CW, 437.150 USB
Oscar 16 01 Aug 02:07:26 02:12:35 64° 102° (ESE) 02:17:43 437.025 USB, Beacon 2401.1428
ITAMSAT 1 01 Aug 02:35:26 02:40:26 49° 100° (E) 02:45:24 435.822 SSB
Uribyol 2 01 Aug 02:53:52 02:59:03 83° 103° (ESE) 03:04:12 436.500 FM
AO-27 01 Aug 02:55:25 03:00:37 82° 103° (ESE) 03:05:47 436.795 MHz FM
PANSAT 01 Aug 03:05:57 03:09:21 29° 166° (SSE) 03:12:46 not established
AO-Echo 01 Aug 03:07:40 03:12:37 69° 285° (WNW) 03:17:23 ?
TMSAT-1 01 Aug 03:10:45 03:15:24 31° 97° (E) 03:20:01 436.925 FM
Oscar 19 01 Aug 03:18:25 03:22:38 26° 291° (WNW) 03:26:51 437.125 CW, 437.150 USB
JAS-1B 01 Aug 03:19:26 03:28:25 76° 102° (ESE) 03:35:52 435.800 - 435.900 CW/SSB
OPAL 01 Aug 03:33:52 03:38:28 41° 70° (ENE) 03:43:06 ?
Gurwin Techsat 1B 01 Aug 03:36:51 03:42:11 83° 103° (ESE) 03:47:29 435.225 FM
Oscar 16 01 Aug 03:49:09 03:51:20 13° 296° (WNW) 03:53:31 437.025 USB, Beacon 2401.1428
